Flag for Switzerland Weather past 2 weeks in Carouge, Geneva, Switzerland

Now
33 °F

Chilly.


Feels Like: 30 °F
Forecast: 30 / 40 °F
Wind: 3 mph from Southwest

Location: Geneve-Cointrin

Current Time: Jan 26, 2015 at 5:57:20 PM

Latest Report: Jan 26, 2015 at 5:00 PM


Visibility: N/A

Pressure: 30.36 "Hg

Humidity: 91%

Dew point: 30 °F

Location of CarougeLocation

Historic Weather in Carouge — Graph

°F

Carouge temperature yesterday

Maximum temperature yesterday: 38 °F (at 12:00 PM)
Minimum temperature yesterday: 33 °F (at 2:00 AM)
Average temperature yesterday: 35 °F

Past Weeks' High & Low Weather Summary

 TemperatureHumidityPressure
High54 °F (Jan 13, 3:00 PM)97% (Jan 20, 5:00 AM)30.61 "Hg (Jan 20, 5:00 AM)
Low25 °F (Jan 13, 5:00 AM)42% (Jan 12, 3:00 PM)29.72 "Hg (Jan 16, 3:00 PM)
Average37 °F77%30.10 "Hg
* Reported Jan 11 4:00 PM — Jan 26 4:00 PM, Carouge, Weather by CustomWeather, © 2014

Note: Actual official high and low records may vary slightly from our data, if they occured in-between our weather recording intervals... More about our weather records

Advertising

Carouge weather history for previous 24 hours

 ConditionsComfort  
Time TempWeatherWind HumidityBarometerVisibility
4:00 PM
Jan 26
32 °FSnow. Overcast.3 mph90%30.37 "Hg1 mi
3:00 PM34 °FChilly.2 mph72%30.37 "HgN/A
2:00 PM35 °FChilly.2 mph67%30.37 "HgN/A
1:00 PM35 °FOvercast.5 mph67%30.39 "Hg19 mi
12:00 PM35 °FChilly.8 mph67%30.41 "HgN/A
11:00 AM35 °FChilly.3 mph60%30.40 "HgN/A
10:00 AM35 °FOvercast.3 mph63%30.41 "Hg22 mi
9:00 AM35 °FChilly.5 mph62%30.40 "HgN/A
8:00 AM34 °FChilly.3 mph66%30.41 "HgN/A
7:00 AM34 °FOvercast.5 mph62%30.40 "Hg19 mi
6:00 AM33 °FChilly.6 mph72%30.40 "HgN/A
5:00 AM35 °FChilly.13 mph62%30.39 "HgN/A
3:00 AM35 °FChilly.13 mph66%30.39 "HgN/A
2:00 AM35 °FChilly.8 mph59%30.39 "HgN/A
1:00 AM34 °FPassing clouds.13 mph64%30.40 "Hg25 mi
12:00 AM35 °FChilly.13 mph65%30.41 "HgN/A
11:00 PM
Jan 25
35 °FChilly.9 mph64%30.42 "HgN/A
10:00 PM35 °FPassing clouds.9 mph59%30.41 "Hg31 mi
9:00 PM35 °FChilly.9 mph52%30.42 "HgN/A
8:00 PM35 °FChilly.10 mph54%30.42 "HgN/A
7:00 PM35 °FPassing clouds.12 mph55%30.41 "Hg43 mi
6:00 PM35 °FChilly.14 mph51%30.40 "HgN/A
5:00 PM36 °FChilly.14 mph47%30.39 "HgN/A
Weather by CustomWeather, © 2014

See weather overviewHow to use our weather pages